Time,TemperatureF,DewpointF,PressureIn,WindDirection,WindDirectionDegrees,WindSpeedMPH,WindSpeedGustMPH,Humidity,HourlyPrecipIn,Conditions,Clouds,dailyrainin,SoftwareType,DateUTC
2013-01-01 00:04:00,33.4,30.8,30.21,East,79,3.0,6.0,90,0.00,,,0.00,VWS V13.01,2013-01-01 08:04:00,
2013-01-01 00:10:00,33.5,30.9,30.21,ENE,74,1.0,4.0,90,0.00,,,0.00,VWS V13.01,2013-01-01 08:10:00,
2013-01-01 00:16:00,33.5,30.9,30.20,ENE,74,0.0,4.0,90,0.00,,,0.00,VWS V13.01,2013-01-01 08:16:00,
2013-01-01 00:22:00,33.4,30.8,30.20,ENE,74,0.0,0.0,90,0.00,,,0.00,VWS V13.01,2013-01-01 08:22:00,
2013-01-01 00:28:00,33.3,30.7,30.20,ENE,74,0.0,0.0,90,0.00,,,0.00,VWS V13.01,2013-01-01 08:28:00,
2013-01-01 00:34:00,33.1,30.5,30.21,ENE,74,2.0,3.0,90,0.00,,,0.00,VWS V13.01,2013-01-01 08:34:00,
2013-01-01 00:40:00,33.0,30.4,30.20,ENE,72,0.0,3.0,90,0.00,,,0.00,VWS V13.01,2013-01-01 08:40:00,
2013-01-01 00:46:00,32.9,30.3,30.20,ENE,72,0.0,3.0,90,0.00,,,0.00,VWS V13.01,2013-01-01 08:46:00,
2013-01-01 00:52:00,32.8,30.2,30.20,ENE,72,0.0,0.0,90,0.00,,,0.00,VWS V13.01,2013-01-01 08:52:00,
2013-01-01 00:58:00,32.6,30.0,30.19,ENE,72,0.0,0.0,90,0.00,,,0.00,VWS V13.01,2013-01-01 08:58:00,
2013-01-01 01:04:00,32.5,29.9,30.19,ENE,72,0.0,0.0,90,0.00,,,0.00,VWS V13.01,2013-01-01 09:04:00,
2013-01-01 01:10:00,32.4,30.1,30.19,ENE,72,0.0,0.0,91,0.00,,,0.00,VWS V13.01,2013-01-01 09:10:00,
2013-01-01 01:16:00,32.5,30.2,30.19,ENE,72,0.0,0.0,91,0.00,,,0.00,VWS V13.01,2013-01-01 09:16:00,
2013-01-01 01:22:00,32.5,30.2,30.20,ENE,72,0.0,0.0,91,0.00,,,0.00,VWS V13.01,2013-01-01 09:22:00,
2013-01-01 01:29:00,32.4,30.1,30.21,NNW,337,4.0,7.0,91,0.00,,,0.00,VWS V13.01,2013-01-01 09:29:00,
2013-01-01 01:34:00,32.4,30.1,30.21,NNW,342,4.0,10.0,91,0.00,,,0.00,VWS V13.01,2013-01-01 09:34:00,
2013-01-01 01:39:00,32.5,30.4,30.21,NNW,346,5.0,7.0,92,0.00,,,0.00,VWS V13.01,2013-01-01 09:39:00,
2013-01-01 01:45:00,32.6,30.5,30.22,North,349,4.0,8.0,92,0.00,,,0.00,VWS V13.01,2013-01-01 09:45:00,
2013-01-01 01:51:00,32.7,30.6,30.22,North,355,6.0,9.0,92,0.00,,,0.00,VWS V13.01,2013-01-01 09:51:00,
2013-01-01 01:57:00,32.7,30.4,30.22,North,355,5.0,9.0,91,0.00,,,0.00,VWS V13.01,2013-01-01 09:57:00,
2013-01-01 02:03:00,32.8,30.5,30.23,North,355,6.0,12.0,91,0.00,,,0.00,VWS V13.01,2013-01-01 10:03:00,
2013-01-01 02:09:00,33.0,30.9,30.23,North,360,6.0,11.0,92,0.00,,,0.00,VWS V13.01,2013-01-01 10:09:00,
2013-01-01 02:15:00,33.2,30.9,30.23,North,9,5.0,12.0,91,0.00,,,0.00,VWS V13.01,2013-01-01 10:15:00,
2013-01-01 02:21:00,33.4,31.1,30.23,North,351,10.0,10.0,91,0.00,,,0.00,VWS V13.01,2013-01-01 10:21:00,
2013-01-01 02:27:00,33.6,31.3,30.23,North,355,7.0,10.0,91,0.00,,,0.00,VWS V13.01,2013-01-01 10:27:00,
2013-01-01 02:34:00,33.8,31.5,30.23,North,360,6.0,12.0,91,0.00,,,0.00,VWS V13.01,2013-01-01 10:34:00,
2013-01-01 02:40:00,33.9,31.6,30.23,North,351,2.0,6.0,91,0.00,,,0.00,VWS V13.01,2013-01-01 10:40:00,
2013-01-01 02:46:00,33.9,31.3,30.23,North,355,4.0,7.0,90,0.00,,,0.00,VWS V13.01,2013-01-01 10:46:00,
2013-01-01 02:52:00,33.9,31.3,30.22,North,360,5.0,9.0,90,0.00,,,0.00,VWS V13.01,2013-01-01 10:52:00,
2013-01-01 02:58:00,33.8,31.5,30.23,North,355,6.0,9.0,91,0.00,,,0.00,VWS V13.01,2013-01-01 10:58:00,
2013-01-01 03:04:00,33.8,31.5,30.24,NNW,340,7.0,11.0,91,0.00,,,0.00,VWS V13.01,2013-01-01 11:04:00,
2013-01-01 03:10:00,33.7,31.1,30.24,NNW,346,5.0,9.0,90,0.00,,,0.00,VWS V13.01,2013-01-01 11:10:00,
2013-01-01 03:16:00,33.6,31.3,30.24,NNW,344,2.0,9.0,91,0.00,,,0.00,VWS V13.01,2013-01-01 11:16:00,
2013-01-01 03:22:00,33.6,31.3,30.24,NNW,344,7.0,8.0,91,0.00,,,0.00,VWS V13.01,2013-01-01 11:22:00,
2013-01-01 03:28:00,33.6,31.3,30.24,NNW,339,10.0,12.0,91,0.00,,,0.00,VWS V13.01,2013-01-01 11:28:00,
2013-01-01 03:34:00,33.7,31.4,30.24,NNW,344,9.0,12.0,91,0.00,,,0.00,VWS V13.01,2013-01-01 11:34:00,
2013-01-01 03:40:00,33.7,31.4,30.24,NNW,341,6.0,10.0,91,0.00,,,0.00,VWS V13.01,2013-01-01 11:40:00,
2013-01-01 03:46:00,33.8,31.5,30.24,NNW,340,5.0,10.0,91,0.00,,,0.00,VWS V13.01,2013-01-01 11:46:00,
2013-01-01 03:52:00,33.9,31.8,30.24,NNW,338,6.0,9.0,92,0.00,,,0.00,VWS V13.01,2013-01-01 11:52:00,
2013-01-01 03:58:00,34.0,31.6,30.24,NNW,338,7.0,9.0,91,0.00,,,0.00,VWS V13.01,2013-01-01 11:58:00,
2013-01-01 04:04:00,34.0,31.6,30.25,NNW,338,4.0,9.0,91,0.00,,,0.00,VWS V13.01,2013-01-01 12:04:00,
2013-01-01 04:11:00,34.0,31.6,30.24,NNW,338,7.0,8.0,91,0.00,,,0.00,VWS V13.01,2013-01-01 12:11:00,
2013-01-01 04:17:00,34.1,31.8,30.24,NNW,338,5.0,9.0,91,0.00,,,0.00,VWS V13.01,2013-01-01 12:17:00,
2013-01-01 04:23:00,34.1,31.8,30.23,NNW,338,4.0,8.0,91,0.00,,,0.00,VWS V13.01,2013-01-01 12:23:00,
2013-01-01 04:29:00,34.1,31.8,30.23,NNW,337,2.0,8.0,91,0.00,,,0.00,VWS V13.01,2013-01-01 12:29:00,
2013-01-01 04:34:00,34.1,31.8,30.23,NNW,337,6.0,8.0,91,0.00,,,0.00,VWS V13.01,2013-01-01 12:34:00,
2013-01-01 04:39:00,34.2,32.1,30.23,NNW,337,1.0,9.0,92,0.00,,,0.00,VWS V13.01,2013-01-01 12:39:00,
2013-01-01 04:45:00,34.2,31.9,30.23,NNW,337,5.0,9.0,91,0.00,,,0.00,VWS V13.01,2013-01-01 12:45:00,
2013-01-01 04:52:00,34.1,31.8,30.23,NNW,336,8.0,8.0,91,0.00,,,0.00,VWS V13.01,2013-01-01 12:52:00,
2013-01-01 04:58:00,34.1,31.8,30.23,NNW,336,4.0,9.0,91,0.00,,,0.00,VWS V13.01,2013-01-01 12:58:00,
2013-01-01 05:04:00,34.1,31.8,30.23,NNW,334,5.0,9.0,91,0.00,,,0.00,VWS V13.01,2013-01-01 13:04:00,
2013-01-01 05:10:00,34.1,31.8,30.23,NNW,333,8.0,9.0,91,0.00,,,0.00,VWS V13.01,2013-01-01 13:10:00,
2013-01-01 05:16:00,34.2,31.6,30.23,NNW,333,6.0,11.0,90,0.00,,,0.00,VWS V13.01,2013-01-01 13:16:00,
2013-01-01 05:22:00,34.2,31.6,30.23,NNW,333,7.0,9.0,90,0.00,,,0.00,VWS V13.01,2013-01-01 13:22:00,
2013-01-01 05:28:00,34.2,31.3,30.23,NNW,331,9.0,10.0,89,0.00,,,0.00,VWS V13.01,2013-01-01 13:28:00,
2013-01-01 05:34:00,34.3,31.4,30.24,NNW,329,7.0,10.0,89,0.00,,,0.00,VWS V13.01,2013-01-01 13:34:00,
2013-01-01 05:40:00,34.3,31.1,30.24,NNW,329,6.0,9.0,88,0.00,,,0.00,VWS V13.01,2013-01-01 13:40:00,
2013-01-01 05:46:00,34.3,31.1,30.24,NNW,329,8.0,9.0,88,0.00,,,0.00,VWS V13.01,2013-01-01 13:46:00,
2013-01-01 05:52:00,34.3,31.1,30.24,NNW,331,7.0,10.0,88,0.00,,,0.00,VWS V13.01,2013-01-01 13:52:00,
2013-01-01 05:58:00,34.4,31.2,30.24,NNW,340,8.0,13.0,88,0.00,,,0.00,VWS V13.01,2013-01-01 13:58:00,
2013-01-01 06:04:00,34.6,31.4,30.24,NNW,338,6.0,13.0,88,0.00,,,0.00,VWS V13.01,2013-01-01 14:04:00,
2013-01-01 06:10:00,35.0,31.5,30.24,NNW,338,6.0,11.0,87,0.00,,,0.00,VWS V13.01,2013-01-01 14:10:00,
2013-01-01 06:16:00,35.3,33.2,30.24,NNW,337,8.0,12.0,92,0.00,,,0.00,VWS V13.01,2013-01-01 14:16:00,
2013-01-01 06:22:00,35.6,31.8,30.24,NNW,336,12.0,15.0,86,0.00,,,0.00,VWS V13.01,2013-01-01 14:22:00,
2013-01-01 06:28:00,35.8,31.7,30.24,NNW,330,10.0,15.0,85,0.00,,,0.00,VWS V13.01,2013-01-01 14:28:00,
2013-01-01 06:34:00,36.0,31.9,30.24,NNW,336,9.0,15.0,85,0.00,,,0.00,VWS V13.01,2013-01-01 14:34:00,
2013-01-01 06:41:00,36.1,31.7,30.24,NNW,336,11.0,12.0,84,0.00,,,0.00,VWS V13.01,2013-01-01 14:41:00,
2013-01-01 06:47:00,36.2,31.8,30.24,NNW,343,9.0,14.0,84,0.00,,,0.00,VWS V13.01,2013-01-01 14:47:00,
2013-01-01 06:53:00,36.3,31.9,30.23,NNW,341,9.0,11.0,84,0.00,,,0.00,VWS V13.01,2013-01-01 14:53:00,
2013-01-01 06:59:00,36.4,32.0,30.23,NNW,340,7.0,13.0,84,0.00,,,0.00,VWS V13.01,2013-01-01 14:59:00,
2013-01-01 07:04:00,36.5,31.8,30.23,NNW,336,9.0,13.0,83,0.00,,,0.00,VWS V13.01,2013-01-01 15:04:00,
2013-01-01 07:09:00,36.5,31.8,30.23,NNW,336,12.0,14.0,83,0.00,,,0.00,VWS V13.01,2013-01-01 15:09:00,
2013-01-01 07:15:00,36.5,31.5,30.23,NNW,347,9.0,15.0,82,0.00,,,0.00,VWS V13.01,2013-01-01 15:15:00,
2013-01-01 07:21:00,36.4,31.4,30.23,NNW,342,7.0,16.0,82,0.00,,,0.00,VWS V13.01,2013-01-01 15:21:00,
2013-01-01 07:28:00,36.4,31.4,30.23,NNW,342,10.0,16.0,82,0.00,,,0.00,VWS V13.01,2013-01-01 15:28:00,
2013-01-01 07:34:00,36.3,31.3,30.23,NNW,340,8.0,16.0,82,0.00,,,0.00,VWS V13.01,2013-01-01 15:34:00,
2013-01-01 07:40:00,36.2,31.2,30.24,NNW,340,11.0,14.0,82,0.00,,,0.00,VWS V13.01,2013-01-01 15:40:00,
2013-01-01 07:46:00,36.1,31.1,30.24,North,350,11.0,14.0,82,0.00,,,0.00,VWS V13.01,2013-01-01 15:46:00,
2013-01-01 07:52:00,36.1,31.1,30.24,NNW,332,12.0,16.0,82,0.00,,,0.00,VWS V13.01,2013-01-01 15:52:00,
2013-01-01 07:58:00,36.2,31.2,30.23,NNW,340,8.0,16.0,82,0.00,,,0.00,VWS V13.01,2013-01-01 15:58:00,
2013-01-01 08:04:00,36.4,31.4,30.23,NNW,335,10.0,16.0,82,0.00,,,0.00,VWS V13.01,2013-01-01 16:04:00,
2013-01-01 08:10:00,36.6,31.6,30.23,NNW,342,8.0,12.0,82,0.00,,,0.00,VWS V13.01,2013-01-01 16:10:00,
2013-01-01 08:16:00,37.1,31.8,30.23,NNW,340,9.0,12.0,81,0.00,,,0.00,VWS V13.01,2013-01-01 16:16:00,
2013-01-01 08:22:00,37.5,31.9,30.23,NNW,341,11.0,12.0,80,0.00,,SCT026,0.00,VWS V13.01,2013-01-01 16:22:00,
2013-01-01 08:28:00,37.8,32.2,30.23,NNW,343,6.0,12.0,80,0.00,,SCT026,0.00,VWS V13.01,2013-01-01 16:28:00,
2013-01-01 08:34:00,38.2,32.3,30.23,NNW,340,10.0,12.0,79,0.00,,SCT026,0.00,VWS V13.01,2013-01-01 16:34:00,
2013-01-01 08:40:00,38.6,32.7,30.23,NNW,327,12.0,13.0,79,0.00,,SCT026,0.00,VWS V13.01,2013-01-01 16:40:00,
2013-01-01 08:46:00,39.1,32.8,30.23,NNW,344,9.0,13.0,78,0.00,,SCT026,0.00,VWS V13.01,2013-01-01 16:46:00,
2013-01-01 08:52:00,39.6,33.0,30.23,NNW,341,6.0,11.0,77,0.00,,SCT026,0.00,VWS V13.01,2013-01-01 16:52:00,
2013-01-01 08:58:00,40.0,32.7,30.23,NNW,342,9.0,13.0,75,0.00,,SCT026,0.00,VWS V13.01,2013-01-01 16:58:00,
2013-01-01 09:04:00,40.4,33.1,30.23,NNW,334,6.0,13.0,75,0.00,,SCT026,0.00,VWS V13.01,2013-01-01 17:04:00,
2013-01-01 09:09:00,40.8,33.2,30.23,NW,325,5.0,12.0,74,0.00,,SCT026,0.00,VWS V13.01,2013-01-01 17:09:00,
2013-01-01 09:15:00,41.3,33.3,30.23,NW,325,6.0,12.0,73,0.00,,SCT026,0.00,VWS V13.01,2013-01-01 17:15:00,
2013-01-01 09:21:00,41.8,33.8,30.23,NNW,342,7.0,8.0,73,0.00,,CLR,0.00,VWS V13.01,2013-01-01 17:21:00,
2013-01-01 09:27:00,42.3,33.6,30.23,NNW,330,7.0,12.0,71,0.00,,CLR,0.00,VWS V13.01,2013-01-01 17:27:00,
2013-01-01 09:33:00,42.8,34.1,30.23,NW,322,8.0,12.0,71,0.00,,CLR,0.00,VWS V13.01,2013-01-01 17:33:00,
2013-01-01 09:39:00,43.4,34.3,30.24,NNW,338,10.0,18.0,70,0.00,,CLR,0.00,VWS V13.01,2013-01-01 17:39:00,
2013-01-01 09:46:00,44.1,34.6,30.24,NNW,347,11.0,18.0,69,0.00,,CLR,0.00,VWS V13.01,2013-01-01 17:46:00,
2013-01-01 09:52:00,44.6,34.3,30.25,NNW,333,8.0,18.0,67,0.00,,CLR,0.00,VWS V13.01,2013-01-01 17:52:00,
2013-01-01 09:58:00,45.2,34.5,30.25,North,5,8.0,18.0,66,0.00,,CLR,0.00,VWS V13.01,2013-01-01 17:58:00,
2013-01-01 10:04:00,45.7,33.8,30.25,NNW,334,11.0,19.0,63,0.00,,CLR,0.00,VWS V13.01,2013-01-01 18:04:00,
2013-01-01 10:10:00,46.1,35.0,30.26,North,360,9.0,15.0,65,0.00,,CLR,0.00,VWS V13.01,2013-01-01 18:10:00,
2013-01-01 10:16:00,46.6,34.7,30.26,North,5,13.0,20.0,63,0.00,,CLR,0.00,VWS V13.01,2013-01-01 18:16:00,
2013-01-01 10:22:00,46.8,34.5,30.26,NNW,341,12.0,20.0,62,0.00,,CLR,0.00,VWS V13.01,2013-01-01 18:22:00,
2013-01-01 10:28:00,46.8,34.5,30.26,North,11,14.0,20.0,62,0.00,,CLR,0.00,VWS V13.01,2013-01-01 18:28:00,
2013-01-01 10:34:00,47.1,34.4,30.26,North,360,14.0,20.0,61,0.00,,CLR,0.00,VWS V13.01,2013-01-01 18:34:00,
2013-01-01 10:40:00,47.2,34.5,30.26,North,360,13.0,22.0,61,0.00,,CLR,0.00,VWS V13.01,2013-01-01 18:40:00,
2013-01-01 10:46:00,47.2,34.9,30.27,NNW,348,12.0,22.0,62,0.00,,CLR,0.00,VWS V13.01,2013-01-01 18:46:00,
2013-01-01 10:52:00,47.4,34.2,30.26,North,355,16.0,21.0,60,0.00,,CLR,0.00,VWS V13.01,2013-01-01 18:52:00,
2013-01-01 10:58:00,47.5,35.5,30.26,NNW,344,13.0,21.0,63,0.00,,CLR,0.00,VWS V13.01,2013-01-01 18:58:00,
2013-01-01 11:04:00,47.9,35.1,30.26,NNW,344,10.0,21.0,61,0.00,,CLR,0.00,VWS V13.01,2013-01-01 19:04:00,
2013-01-01 11:10:00,48.0,34.8,30.25,NNW,327,17.0,20.0,60,0.00,,CLR,0.00,VWS V13.01,2013-01-01 19:10:00,
2013-01-01 11:17:00,48.3,36.3,30.25,North,360,16.0,20.0,63,0.00,,CLR,0.00,VWS V13.01,2013-01-01 19:17:00,
2013-01-01 11:23:00,48.9,35.6,30.25,North,5,11.0,15.0,60,0.00,,CLR,0.00,VWS V13.01,2013-01-01 19:23:00,
2013-01-01 11:29:00,49.3,36.0,30.25,NNW,339,15.0,17.0,60,0.00,,CLR,0.00,VWS V13.01,2013-01-01 19:29:00,
2013-01-01 11:34:00,49.5,36.2,30.25,North,355,8.0,18.0,60,0.00,,CLR,0.00,VWS V13.01,2013-01-01 19:34:00,
2013-01-01 11:39:00,49.7,36.0,30.25,NNW,346,8.0,19.0,59,0.00,,CLR,0.00,VWS V13.01,2013-01-01 19:39:00,
2013-01-01 11:45:00,50.0,35.4,30.25,NNW,347,10.0,19.0,57,0.00,,CLR,0.00,VWS V13.01,2013-01-01 19:45:00,
2013-01-01 11:51:00,50.3,36.5,30.25,NNW,331,10.0,13.0,59,0.00,,CLR,0.00,VWS V13.01,2013-01-01 19:51:00,
2013-01-01 11:57:00,50.7,36.0,30.24,North,355,8.0,16.0,57,0.00,,CLR,0.00,VWS V13.01,2013-01-01 19:57:00,
2013-01-01 12:03:00,51.2,35.6,30.24,NNW,340,10.0,18.0,55,0.00,,CLR,0.00,VWS V13.01,2013-01-01 20:03:00,
2013-01-01 12:10:00,51.3,35.7,30.24,NNW,331,17.0,17.0,55,0.00,,CLR,0.00,VWS V13.01,2013-01-01 20:10:00,
2013-01-01 12:16:00,51.3,35.7,30.23,NNW,340,15.0,19.0,55,0.00,,CLR,0.00,VWS V13.01,2013-01-01 20:16:00,
2013-01-01 12:22:00,51.4,36.2,30.23,NNW,331,12.0,15.0,56,0.00,,CLR,0.00,VWS V13.01,2013-01-01 20:22:00,
2013-01-01 12:28:00,51.7,36.1,30.23,North,355,11.0,18.0,55,0.00,,CLR,0.00,VWS V13.01,2013-01-01 20:28:00,
2013-01-01 12:34:00,52.1,37.3,30.23,NNW,342,8.0,18.0,57,0.00,,CLR,0.00,VWS V13.01,2013-01-01 20:34:00,
2013-01-01 12:40:00,52.4,36.7,30.23,NNW,344,10.0,19.0,55,0.00,,CLR,0.00,VWS V13.01,2013-01-01 20:40:00,
2013-01-01 12:46:00,52.7,36.1,30.22,NNW,337,21.0,21.0,53,0.00,,CLR,0.00,VWS V13.01,2013-01-01 20:46:00,
2013-01-01 12:52:00,52.8,36.2,30.22,North,355,10.0,17.0,53,0.00,,CLR,0.00,VWS V13.01,2013-01-01 20:52:00,
2013-01-01 12:58:00,53.2,36.0,30.22,NNW,338,17.0,21.0,52,0.00,,CLR,0.00,VWS V13.01,2013-01-01 20:58:00,
2013-01-01 13:04:00,53.4,35.7,30.22,NNW,343,7.0,21.0,51,0.00,,CLR,0.00,VWS V13.01,2013-01-01 21:04:00,
2013-01-01 13:10:00,53.4,36.7,30.21,North,355,11.0,20.0,53,0.00,,CLR,0.00,VWS V13.01,2013-01-01 21:10:00,
2013-01-01 13:16:00,53.6,35.9,30.21,NNW,341,12.0,20.0,51,0.00,,CLR,0.00,VWS V13.01,2013-01-01 21:16:00,
2013-01-01 13:22:00,53.4,37.2,30.21,NNW,336,6.0,17.0,54,0.00,,CLR,0.00,VWS V13.01,2013-01-01 21:22:00,
2013-01-01 13:28:00,53.4,37.2,30.20,NNW,345,7.0,17.0,54,0.00,,CLR,0.00,VWS V13.01,2013-01-01 21:28:00,
2013-01-01 13:34:00,53.7,37.9,30.20,North,360,11.0,17.0,55,0.00,,CLR,0.00,VWS V13.01,2013-01-01 21:34:00,
2013-01-01 13:40:00,54.0,37.8,30.20,NNW,336,13.0,16.0,54,0.00,,CLR,0.00,VWS V13.01,2013-01-01 21:40:00,
2013-01-01 13:47:00,54.0,36.8,30.20,NNW,331,16.0,18.0,52,0.00,,CLR,0.00,VWS V13.01,2013-01-01 21:47:00,
2013-01-01 13:53:00,54.0,37.3,30.21,NNW,341,9.0,15.0,53,0.00,,CLR,0.00,VWS V13.01,2013-01-01 21:53:00,
2013-01-01 13:59:00,54.2,37.5,30.20,North,349,7.0,17.0,53,0.00,,CLR,0.00,VWS V13.01,2013-01-01 21:59:00,
2013-01-01 14:04:00,54.3,37.1,30.20,North,355,8.0,17.0,52,0.00,,CLR,0.00,VWS V13.01,2013-01-01 22:04:00,
2013-01-01 14:09:00,54.5,37.7,30.20,NNW,335,11.0,13.0,53,0.00,,CLR,0.00,VWS V13.01,2013-01-01 22:09:00,
2013-01-01 14:15:00,54.6,37.3,30.20,North,360,5.0,13.0,52,0.00,,CLR,0.00,VWS V13.01,2013-01-01 22:15:00,
2013-01-01 14:21:00,54.7,36.9,30.20,North,360,7.0,12.0,51,0.00,,CLR,0.00,VWS V13.01,2013-01-01 22:21:00,
2013-01-01 14:27:00,54.8,37.5,30.20,NNW,335,9.0,13.0,52,0.00,,CLR,0.00,VWS V13.01,2013-01-01 22:27:00,
2013-01-01 14:34:00,55.0,36.7,30.20,North,350,8.0,13.0,50,0.00,,CLR,0.00,VWS V13.01,2013-01-01 22:34:00,
2013-01-01 14:40:00,55.0,37.2,30.19,North,355,8.0,13.0,51,0.00,,CLR,0.00,VWS V13.01,2013-01-01 22:40:00,
2013-01-01 14:46:00,55.1,37.3,30.20,NNW,342,9.0,13.0,51,0.00,,CLR,0.00,VWS V13.01,2013-01-01 22:46:00,
2013-01-01 14:52:00,55.2,37.4,30.20,North,349,4.0,11.0,51,0.00,,CLR,0.00,VWS V13.01,2013-01-01 22:52:00,
2013-01-01 14:58:00,55.3,37.0,30.20,North,355,9.0,13.0,50,0.00,,CLR,0.00,VWS V13.01,2013-01-01 22:58:00,
2013-01-01 15:04:00,55.0,37.2,30.20,North,360,6.0,13.0,51,0.00,,CLR,0.00,VWS V13.01,2013-01-01 23:04:00,
2013-01-01 15:10:00,54.5,37.2,30.20,NNW,330,9.0,10.0,52,0.00,,CLR,0.00,VWS V13.01,2013-01-01 23:10:00,
2013-01-01 15:16:00,54.1,37.4,30.20,North,355,6.0,10.0,53,0.00,,CLR,0.00,VWS V13.01,2013-01-01 23:16:00,
2013-01-01 15:22:00,53.9,37.2,30.20,NNW,338,5.0,10.0,53,0.00,,CLR,0.00,VWS V13.01,2013-01-01 23:22:00,
2013-01-01 15:28:00,53.7,36.5,30.20,NNW,331,8.0,10.0,52,0.00,,CLR,0.00,VWS V13.01,2013-01-01 23:28:00,
2013-01-01 15:34:00,53.4,35.7,30.19,NW,321,5.0,6.0,51,0.00,,CLR,0.00,VWS V13.01,2013-01-01 23:34:00,
2013-01-01 15:40:00,53.2,36.5,30.19,NW,321,4.0,8.0,53,0.00,,CLR,0.00,VWS V13.01,2013-01-01 23:40:00,
2013-01-01 15:46:00,53.0,36.3,30.19,NNW,334,0.0,8.0,53,0.00,,CLR,0.00,VWS V13.01,2013-01-01 23:46:00,
2013-01-01 15:52:00,52.8,36.2,30.18,NNW,337,5.0,7.0,53,0.00,,CLR,0.00,VWS V13.01,2013-01-01 23:52:00,
2013-01-01 15:58:00,52.6,36.0,30.18,NNW,338,0.0,7.0,53,0.00,,CLR,0.00,VWS V13.01,2013-01-01 23:58:00,
2013-01-01 16:04:00,52.4,35.8,30.18,NNW,338,1.0,7.0,53,0.00,,CLR,0.00,VWS V13.01,2013-01-02 00:04:00,
2013-01-01 16:11:00,52.2,36.1,30.18,NNW,338,0.0,6.0,54,0.00,,CLR,0.00,VWS V13.01,2013-01-02 00:11:00,
2013-01-01 16:17:00,51.9,35.8,30.18,NNW,338,0.0,6.0,54,0.00,,CLR,0.00,VWS V13.01,2013-01-02 00:17:00,
2013-01-01 16:23:00,51.6,36.0,30.18,NNW,338,0.0,0.0,55,0.00,,CLR,0.00,VWS V13.01,2013-01-02 00:23:00,
2013-01-01 16:29:00,51.3,36.2,30.18,NNW,338,0.0,0.0,56,0.00,,CLR,0.00,VWS V13.01,2013-01-02 00:29:00,
2013-01-01 16:34:00,51.0,36.3,30.18,NNW,338,0.0,0.0,57,0.00,,CLR,0.00,VWS V13.01,2013-01-02 00:34:00,
2013-01-01 16:39:00,50.7,36.0,30.17,NNW,338,0.0,0.0,57,0.00,,CLR,0.00,VWS V13.01,2013-01-02 00:39:00,
2013-01-01 16:45:00,50.3,36.1,30.18,NNW,338,0.0,0.0,58,0.00,,CLR,0.00,VWS V13.01,2013-01-02 00:45:00,
2013-01-01 16:52:00,49.9,35.3,30.17,NNW,338,0.0,0.0,57,0.00,,CLR,0.00,VWS V13.01,2013-01-02 00:52:00,
2013-01-01 16:58:00,49.4,35.3,30.17,NNW,338,0.0,0.0,58,0.00,,CLR,0.00,VWS V13.01,2013-01-02 00:58:00,
2013-01-01 17:04:00,49.0,35.7,30.17,NNW,338,0.0,0.0,60,0.00,,CLR,0.00,VWS V13.01,2013-01-02 01:04:00,
2013-01-01 17:10:00,48.5,35.7,30.17,NNW,338,0.0,0.0,61,0.00,,CLR,0.00,VWS V13.01,2013-01-02 01:10:00,
2013-01-01 17:16:00,48.0,35.6,30.17,NNW,338,0.0,0.0,62,0.00,,CLR,0.00,VWS V13.01,2013-01-02 01:16:00,
2013-01-01 17:22:00,47.5,35.1,30.17,NNW,338,0.0,0.0,62,0.00,,CLR,0.00,VWS V13.01,2013-01-02 01:22:00,
2013-01-01 17:28:00,47.0,35.5,30.17,NNW,338,0.0,0.0,64,0.00,,CLR,0.00,VWS V13.01,2013-01-02 01:28:00,
2013-01-01 17:34:00,46.5,35.0,30.17,NNW,338,0.0,0.0,64,0.00,,CLR,0.00,VWS V13.01,2013-01-02 01:34:00,
2013-01-01 17:40:00,46.1,35.4,30.17,NNW,338,0.0,0.0,66,0.00,,CLR,0.00,VWS V13.01,2013-01-02 01:40:00,
2013-01-01 17:46:00,45.6,35.7,30.17,NNW,338,0.0,0.0,68,0.00,,CLR,0.00,VWS V13.01,2013-01-02 01:46:00,
2013-01-01 17:52:00,45.2,35.7,30.17,NNW,338,0.0,0.0,69,0.00,,CLR,0.00,VWS V13.01,2013-01-02 01:52:00,
2013-01-01 17:58:00,44.7,35.5,30.18,NNW,338,0.0,0.0,70,0.00,,CLR,0.00,VWS V13.01,2013-01-02 01:58:00,
2013-01-01 18:04:00,44.3,35.5,30.18,NNW,338,0.0,0.0,71,0.00,,CLR,0.00,VWS V13.01,2013-01-02 02:04:00,
2013-01-01 18:10:00,43.9,35.8,30.18,NNW,338,0.0,0.0,73,0.00,,CLR,0.00,VWS V13.01,2013-01-02 02:10:00,
2013-01-01 18:16:00,43.6,35.9,30.17,NNW,338,0.0,0.0,74,0.00,,CLR,0.00,VWS V13.01,2013-01-02 02:16:00,
2013-01-01 18:22:00,43.2,35.8,30.18,NNW,338,0.0,0.0,75,0.00,,CLR,0.00,VWS V13.01,2013-01-02 02:22:00,
2013-01-01 18:28:00,42.8,35.8,30.17,NNW,338,0.0,0.0,76,0.00,,CLR,0.00,VWS V13.01,2013-01-02 02:28:00,
2013-01-01 18:34:00,42.4,35.7,30.17,NNW,338,0.0,0.0,77,0.00,,CLR,0.00,VWS V13.01,2013-01-02 02:34:00,
2013-01-01 18:40:00,41.9,35.2,30.18,NNW,338,0.0,0.0,77,0.00,,CLR,0.00,VWS V13.01,2013-01-02 02:40:00,
2013-01-01 18:47:00,41.6,35.3,30.18,NNW,338,0.0,0.0,78,0.00,,CLR,0.00,VWS V13.01,2013-01-02 02:47:00,
2013-01-01 18:53:00,41.3,35.0,30.18,NNW,338,0.0,0.0,78,0.00,,CLR,0.00,VWS V13.01,2013-01-02 02:53:00,
2013-01-01 18:59:00,41.1,35.1,30.18,NNW,338,0.0,0.0,79,0.00,,CLR,0.00,VWS V13.01,2013-01-02 02:59:00,
2013-01-01 19:04:00,41.0,35.0,30.18,NNW,338,0.0,0.0,79,0.00,,CLR,0.00,VWS V13.01,2013-01-02 03:04:00,
2013-01-01 19:09:00,40.9,34.9,30.18,NNW,338,0.0,0.0,79,0.00,,CLR,0.00,VWS V13.01,2013-01-02 03:09:00,
2013-01-01 19:15:00,40.7,34.7,30.18,NNW,338,0.0,0.0,79,0.00,,CLR,0.00,VWS V13.01,2013-01-02 03:15:00,
2013-01-01 19:21:00,40.6,34.9,30.18,NNW,338,0.0,0.0,80,0.00,,CLR,0.00,VWS V13.01,2013-01-02 03:21:00,
2013-01-01 19:27:00,40.5,34.8,30.18,NNW,338,0.0,0.0,80,0.00,,CLR,0.00,VWS V13.01,2013-01-02 03:27:00,
2013-01-01 19:33:00,40.3,34.6,30.18,NNW,338,0.0,0.0,80,0.00,,CLR,0.00,VWS V13.01,2013-01-02 03:33:00,
2013-01-01 19:39:00,40.2,34.8,30.18,NNW,338,0.0,0.0,81,0.00,,CLR,0.00,VWS V13.01,2013-01-02 03:39:00,
2013-01-01 19:46:00,39.9,34.5,30.18,NNW,338,0.0,0.0,81,0.00,,CLR,0.00,VWS V13.01,2013-01-02 03:46:00,
2013-01-01 19:52:00,39.6,34.3,30.18,NNW,338,0.0,0.0,81,0.00,,CLR,0.00,VWS V13.01,2013-01-02 03:52:00,
2013-01-01 19:58:00,39.3,34.3,30.18,NNW,338,0.0,0.0,82,0.00,,CLR,0.00,VWS V13.01,2013-01-02 03:58:00,
2013-01-01 20:04:00,39.0,34.0,30.18,NNW,338,0.0,0.0,82,0.00,,CLR,0.00,VWS V13.01,2013-01-02 04:04:00,
2013-01-01 20:10:00,38.7,33.7,30.19,NNW,338,0.0,0.0,82,0.00,,CLR,0.00,VWS V13.01,2013-01-02 04:10:00,
2013-01-01 20:16:00,38.3,33.6,30.18,NNW,338,0.0,0.0,83,0.00,,CLR,0.00,VWS V13.01,2013-01-02 04:16:00,
2013-01-01 20:22:00,38.0,33.3,30.19,NNW,338,0.0,0.0,83,0.00,,CLR,0.00,VWS V13.01,2013-01-02 04:22:00,
2013-01-01 20:28:00,37.8,33.4,30.19,NNW,338,0.0,0.0,84,0.00,,CLR,0.00,VWS V13.01,2013-01-02 04:28:00,
2013-01-01 20:34:00,37.5,33.1,30.19,NNW,338,0.0,0.0,84,0.00,,CLR,0.00,VWS V13.01,2013-01-02 04:34:00,
2013-01-01 20:40:00,37.3,32.9,30.19,NNW,338,0.0,0.0,84,0.00,,CLR,0.00,VWS V13.01,2013-01-02 04:40:00,
2013-01-01 20:46:00,37.0,32.9,30.19,NNW,338,0.0,0.0,85,0.00,,CLR,0.00,VWS V13.01,2013-01-02 04:46:00,
2013-01-01 20:52:00,36.8,32.7,30.19,NNW,338,0.0,0.0,85,0.00,,CLR,0.00,VWS V13.01,2013-01-02 04:52:00,
2013-01-01 20:58:00,36.5,32.4,30.19,NNW,338,0.0,0.0,85,0.00,,CLR,0.00,VWS V13.01,2013-01-02 04:58:00,
2013-01-01 21:03:00,36.2,32.1,30.19,NNW,338,0.0,0.0,85,0.00,,CLR,0.00,VWS V13.01,2013-01-02 05:03:00,
2013-01-01 21:04:00,36.1,32.0,30.19,NNW,338,0.0,0.0,85,0.00,,CLR,0.00,VWS V13.01,2013-01-02 05:04:00,
2013-01-01 21:06:00,36.0,32.2,30.19,NNW,338,0.0,0.0,86,0.00,,CLR,0.00,VWS V13.01,2013-01-02 05:06:00,
2013-01-01 21:08:00,36.0,32.2,30.20,NNW,338,0.0,0.0,86,0.00,,CLR,0.00,VWS V13.01,2013-01-02 05:08:00,
2013-01-01 21:14:00,35.8,32.0,30.20,NNW,338,0.0,0.0,86,0.00,,CLR,0.00,VWS V13.01,2013-01-02 05:14:00,
2013-01-01 21:19:00,35.7,32.2,30.20,NNW,338,0.0,0.0,87,0.00,,CLR,0.00,VWS V13.01,2013-01-02 05:19:00,
2013-01-01 21:25:00,35.6,32.1,30.20,NNW,338,0.0,0.0,87,0.00,,CLR,0.00,VWS V13.01,2013-01-02 05:25:00,
2013-01-01 21:31:00,35.4,31.9,30.20,NNW,338,0.0,0.0,87,0.00,,CLR,0.00,VWS V13.01,2013-01-02 05:31:00,
2013-01-01 21:37:00,35.2,31.7,30.20,NNW,338,0.0,0.0,87,0.00,,CLR,0.00,VWS V13.01,2013-01-02 05:37:00,
2013-01-01 21:43:00,35.1,31.6,30.20,NNW,338,0.0,0.0,87,0.00,,CLR,0.00,VWS V13.01,2013-01-02 05:43:00,
2013-01-01 21:49:00,35.1,31.9,30.20,NNW,338,0.0,0.0,88,0.00,,CLR,0.00,VWS V13.01,2013-01-02 05:49:00,
2013-01-01 21:55:00,35.1,31.9,30.21,NNW,338,0.0,0.0,88,0.00,,CLR,0.00,VWS V13.01,2013-01-02 05:55:00,
2013-01-01 22:01:00,35.0,31.8,30.21,NNW,338,5.0,5.0,88,0.00,,CLR,0.00,VWS V13.01,2013-01-02 06:01:00,
2013-01-01 22:07:00,35.0,31.8,30.22,NNW,338,2.0,4.0,88,0.00,,CLR,0.00,VWS V13.01,2013-01-02 06:07:00,
2013-01-01 22:15:00,35.4,32.5,30.21,NNW,338,4.0,6.0,89,0.00,,CLR,0.00,VWS V13.01,2013-01-02 06:15:00,
2013-01-01 22:26:00,35.9,32.7,30.21,NNW,338,0.0,4.0,88,0.00,,CLR,0.00,VWS V13.01,2013-01-02 06:26:00,
2013-01-01 22:32:00,36.1,32.6,30.21,NNW,338,0.0,4.0,87,0.00,,CLR,0.00,VWS V13.01,2013-01-02 06:32:00,
2013-01-01 22:38:00,36.2,32.4,30.21,NNW,336,4.0,6.0,86,0.00,,CLR,0.00,VWS V13.01,2013-01-02 06:38:00,
2013-01-01 22:45:00,36.4,32.3,30.21,NNW,338,1.0,6.0,85,0.00,,CLR,0.00,VWS V13.01,2013-01-02 06:45:00,
2013-01-01 23:00:00,36.1,31.7,30.22,NNW,338,3.0,7.0,84,0.00,,CLR,0.00,VWS V13.01,2013-01-02 07:00:00,
2013-01-01 23:15:00,36.0,31.4,30.22,NNW,338,1.0,6.0,83,0.00,,CLR,0.00,VWS V13.01,2013-01-02 07:15:00,
2013-01-01 23:30:00,35.9,31.2,30.22,NNW,338,0.0,2.0,83,0.00,,CLR,0.00,VWS V13.01,2013-01-02 07:30:00,
2013-01-01 23:45:00,35.6,31.2,30.22,NNW,338,0.0,0.0,84,0.00,,CLR,0.00,VWS V13.01,2013-01-02 07:45:00,